Home > Weather > Ehingen (Donau) > Past weeks

Flag for Germany Weather for the Past 2 Weeks in Ehingen (Donau), Baden-Württemberg, Germany

Now
41 °F

Passing clouds.


Feels Like: 39 °F
Forecast: 25 / 55 °F
Wind: 3 mph from East

Location: Laupheim Airport

Current Time: Apr 28, 2016 at 9:59:19 PM

Latest Report: Apr 28, 2016 at 9:20 PM


Visibility: N/A

Pressure: 30.01 "Hg (28.19 "Hg at 508m altitude)

Humidity: 76%

Dew Point: 34 °F

Location of Ehingen (Donau)Location

Historic Weather in Ehingen (Donau) — Graph

°F

Ehingen (Donau) Temperature Yesterday

Maximum temperature yesterday: 45 °F (at 3:20 PM)
Minimum temperature yesterday: 32 °F (at 12:20 AM)
Average temperature yesterday: 37 °F

High & Low Weather Summary for the Past Weeks

 TemperatureHumidityPressure
High64 °F (Apr 21, 3:20 PM)100% (Apr 16, 4:20 AM)30.36 "Hg (Apr 16, 4:20 AM)
Low28 °F (Apr 28, 4:20 AM)37% (Apr 21, 4:20 PM)29.59 "Hg (Apr 26, 7:20 AM)
Average44 °F76%29.93 "Hg
* Reported Apr 13 8:20 PM — Apr 28 8:20 PM, Ehingen (Donau), Weather by CustomWeather, © 2016

Note: Actual official high and low records may vary slightly from our data, if they occured in-between our weather recording intervals... More about our weather records

Advertising

Ehingen (Donau) Weather History for the Previous 24 Hours

Scroll right to see more
 ConditionsComfort  
Time TempWeatherWind HumidityBarometerVisibility
8:20 PM
Thu, Apr 28
43 °FPassing clouds.2 mph66%30.01 "HgN/A
7:20 PM45 °FScattered clouds.1 mph57%30.01 "HgN/A
6:20 PM45 °FScattered clouds.5 mph61%30.01 "HgN/A
5:20 PM41 °FSnow flurries. Partly sunny.5 mph76%30.01 "HgN/A
4:52 PM41 °FRain showers. Broken clouds.9 mph70%30.01 "Hg4 mi
4:20 PM45 °FScattered showers. Scattered clouds.3 mph53%29.98 "HgN/A
3:20 PM45 °FScattered showers. Scattered clouds.12 mph57%29.98 "HgN/A
2:20 PM39 °FScattered clouds.10 mph81%29.98 "HgN/A
1:49 PM39 °FSprinkles. Broken clouds.20 mph75%29.98 "HgN/A
1:20 PM45 °FScattered showers. Scattered clouds.6 mph66%29.98 "HgN/A
12:53 PM41 °FSprinkles. Broken clouds.7 mph66%29.98 "HgN/A
11:20 AM45 °FScattered clouds.10 mph49%29.95 "HgN/A
10:20 AM41 °FScattered clouds.7 mph66%29.95 "HgN/A
9:20 AM37 °FScattered clouds.8 mph75%29.95 "HgN/A
7:20 AM30 °FBroken clouds.2 mph86%29.95 "HgN/A
6:20 AM28 °FPartly cloudy.1 mph93%29.92 "HgN/A
5:20 AM28 °FPassing clouds.3 mph93%29.92 "HgN/A
4:20 AM28 °FPassing clouds.3 mph93%29.92 "HgN/A
3:20 AM32 °FPassing clouds.5 mph87%29.92 "HgN/A
2:20 AM32 °FPassing clouds.6 mph80%29.92 "HgN/A
1:20 AM32 °FPassing clouds.5 mph80%29.95 "HgN/A
12:20 AM32 °FPassing clouds.5 mph87%29.95 "HgN/A
11:20 PM
Wed, Apr 27
34 °FPassing clouds.6 mph81%29.95 "HgN/A
10:20 PM36 °FPassing clouds.7 mph70%29.92 "HgN/A
9:20 PM37 °FPassing clouds.8 mph65%29.92 "HgN/A
Weather by CustomWeather, © 2016

See weather overviewHow to use our weather pages